Dallas Redbird, TX

5:11 AM CDT on August 18, 2017 (GMT -0500)
Redbird

Weather History for KRBD - April, 2014

Change the Weather History Date:

Monday, April 14, 2014

  Actual Average Record
Temperature  
Mean Temperature 59 °F -  
Max Temperature 72 °F 73 °F 84 °F (1998)
Min Temperature 41 °F 53 °F 39 °F (2004)
Degree Days  
Heating Degree Days 6    
Growing Degree Days 9 (Base 50)    
Moisture  
Dew Point 40 °F    
Average Humidity 61    
Maximum Humidity 84    
Minimum Humidity 41    
Precipitation  
Precipitation 0.00 in - - ()
Sea Level Pressure  
Sea Level Pressure 29.99 in    
Wind  
Wind Speed 15 mph (NNW)    
Max Wind Speed 25 mph    
Max Gust Speed 37 mph    
Visibility 10 miles    
Events Rain    
Averages and records for this station are not official NWS values.
T = Trace of Precipitation, MM = Missing Value Source: NWS Daily Summary

Daily Weather History Graph

Daily Weather History Graph

Search for Another Location

Airport or City:

Trip Planner

Search our weather history database for the weather conditions in past years. The results will help you decide how hot, cold, wet, or windy it might be!

Date:

Astronomy

Apr. 14, 2014 Rise Set
Actual Time 6:59 AM CDT 7:56 PM CDT
Civil Twilight 6:33 AM CDT 8:22 PM CDT
Nautical Twilight 6:04 AM CDT 8:52 PM CDT
Astronomical Twilight 5:33 AM CDT 9:22 PM CDT
Moon 7:37 PM CDT (4/14) 6:29 AM CDT (4/14)
Length of Visible Light 13h 48m
Length of Day
12h 57m
Full, 100% of the Moon is Illuminated
Apr 14
Full
Apr 15
Full
Apr 22
Last Quarter
Apr 29
New
May 6
First Quarter

Hourly Weather History & Observations

Time (CDT) Temp. Windchill Dew Point Humidity Pressure Visibility Wind Dir Wind Speed Gust Speed Precip Events Conditions
12:09 AM 73.4 °F - 68.0 °F 83% 29.69 in 9.0 mi SSW 5.8 mph - N/A Rain Light Rain
12:21 AM 73.4 °F - 66.2 °F 78% 29.69 in 9.0 mi Variable 5.8 mph - N/A   Partly Cloudy
12:53 AM 72.0 °F - 66.9 °F 84% 29.68 in 8.0 mi WSW 3.5 mph - N/A   Partly Cloudy
1:17 AM 66.2 °F - 59.0 °F 78% 29.72 in 10.0 mi NNW 19.6 mph - N/A   Mostly Cloudy
1:53 AM 60.1 °F - 52.0 °F 75% 29.73 in 10.0 mi NNW 21.9 mph 28.8 mph N/A   Overcast
2:53 AM 57.9 °F - 50.0 °F 75% 29.75 in 10.0 mi NNW 19.6 mph 28.8 mph N/A   Overcast
4:53 AM 51.1 °F - 42.1 °F 71% 29.81 in 10.0 mi NNW 24.2 mph 31.1 mph N/A   Overcast
5:53 AM 48.0 °F - 37.9 °F 68% 29.86 in 10.0 mi NW 21.9 mph 34.5 mph N/A   Overcast
7:53 AM 46.0 °F 38.5 °F 35.1 °F 66% 29.95 in 10.0 mi NNW 19.6 mph 28.8 mph N/A   Overcast
8:53 AM 46.0 °F 37.6 °F 36.0 °F 68% 29.97 in 10.0 mi NNW 24.2 mph 34.5 mph N/A   Overcast
9:53 AM 46.9 °F - 35.1 °F 63% 30.00 in 10.0 mi NNW 19.6 mph 28.8 mph N/A   Overcast
10:53 AM 46.9 °F - 35.1 °F 63% 30.03 in 10.0 mi NNW 20.7 mph 29.9 mph N/A   Overcast
11:53 AM 48.0 °F - 34.0 °F 58% 30.05 in 10.0 mi NNW 25.3 mph 32.2 mph N/A   Overcast
1:53 PM 48.9 °F - 33.1 °F 54% 30.11 in 10.0 mi North 21.9 mph 31.1 mph N/A   Overcast
2:37 PM 51.8 °F - 33.8 °F 50% 30.10 in 10.0 mi NNW 23.0 mph 32.2 mph N/A   Overcast
2:53 PM 51.1 °F - 34.0 °F 52% 30.09 in 10.0 mi NNW 24.2 mph 36.8 mph N/A   Overcast
3:53 PM 53.1 °F - 34.0 °F 48% 30.09 in 10.0 mi NNW 21.9 mph 29.9 mph N/A   Mostly Cloudy
4:53 PM 53.1 °F - 33.1 °F 47% 30.09 in 10.0 mi North 25.3 mph 32.2 mph N/A   Mostly Cloudy
5:53 PM 52.0 °F - 32.0 °F 47% 30.10 in 10.0 mi North 12.7 mph 21.9 mph N/A   Overcast
6:53 PM 54.0 °F - 30.9 °F 41% 30.11 in 10.0 mi North 17.3 mph 26.5 mph N/A   Overcast
7:53 PM 50.0 °F - 30.0 °F 46% 30.14 in 10.0 mi North 15.0 mph 25.3 mph N/A   Partly Cloudy
8:53 PM 50.0 °F - 28.9 °F 44% 30.18 in 10.0 mi North 10.4 mph 20.7 mph N/A   Clear
9:53 PM 48.0 °F - 28.0 °F 46% 30.22 in 10.0 mi North 10.4 mph - N/A   Clear
10:53 PM 45.0 °F 40.6 °F 28.9 °F 53% 30.24 in 10.0 mi NNW 8.1 mph - N/A   Clear
11:53 PM 41.0 °F 37.1 °F 30.0 °F 65% 30.26 in 10.0 mi NW 5.8 mph - N/A   Clear